KUIPER-00452

导读

KUIPER-00452(NORAD编号68946)是亚马逊柯伊伯(Kuiper)低轨宽带卫星星座的组网卫星。Kuiper项目旨在通过数千颗低轨卫星实现全球范围内高速宽带互联网接入,弥补地面网络覆盖盲区,面向个人、企业及物联网应用提供服务。该卫星配备相控阵天线,支持自适应编码调制与动态波束分配,可实现灵活覆盖与高效干扰协调,属于项目推进阶段发射的组网卫星,助力星座逐步实现商业运营,为全球互联提供空间基础设施支撑。

Basic Information
目录编号:
68946
目录名称:
KUIPER-00452
国际标识:
2026-098AD
轨道中心:
EARTH
卫星名称:
KUIPER-00452
卫星全名:
KUIPER-00452
卫星状态:
在轨 (已飞行128 天)
发射日期:
2026-04-30 UTC
国别 :
美国 (US)
星等 :
--
Orbit Information
数据来源 国际轨道数据
星历时间: 2026-09-04T20:13:14+0800
12小时前
查看轨道信息
半长轴: 7007.69km
偏心率: 0.0000726
轨道倾角: 51.901°
近地点辐角 77.132°
升交点赤经 59.904°
平近点角 282.972°
近地点: 629.044km
远地点: 630.062km
周期: 97.302分钟
每日圈数: 14.799277
Detailed Information
使用方式:
暂无
2D Orbit Map
3D Orbit Map
Orbit Altitude Analysis Chart
Orbit Inclination Analysis Chart
Orbit Comprehensive Analysis Chart
View Comprehensive Chart
Conjunction Data List
Event ID Objects TCA Miss Dist (km) Collision Risk Probability Collision Risk Index (CRI) Action
CDM_260901-122603-926506-894626
CASSIOPE (39265)
2026-09-01T
12:26:39+0000
1.296 km
极远距离
8.8173E-6 低风险 0.54